User: anonymous   Login
Location: Roanoke
(37.2710°N, 79.9420°W)
Time: 23:41:27
(UTC-05:00)
Language:

Cosmos 1441 Rocket - Orbit

View from above orbital plane
View from above orbital plane
View from above satellite
View from above satellite

Ground track
Ground track

The orbit data is extracted from the following two-line orbital elements,

1 13819U 83010B   16040.08673053  .00002099  00000-0  11258-3 0  9997
2 13819  81.1158  16.0473 0033312 181.9968 178.1133 15.14062285798937
Epoch (UTC): 09 February 2016 02:04:53
Eccentricity: 0.0033312
inclination: 81.1158°
perigee height: 501 km
apogee height: 547 km
right ascension of ascending node: 16.0473°
argument of perigee: 181.9968°
revolutions per day: 15.14062285
mean anomaly at epoch: 178.1133°
orbit number at epoch: 79893

The dashed part of the orbit path shows where the satellite is in the earth's shadow,  

DLR